METEOR M2-3 DEB, 60448

Orbit data source: Space-Track

METEOR M2-3 DEB, 60448 is space debris in SSO originally from a Commonwealth of Independent States-origin launch on Tue, 27 Jun 2023 UTC launched from the Vostochny Cosmodrome (VOSTO). Debris objects in space refer to the collection of defunct objects orbiting the Earth. Examples of debris include non-operational satellites, rocket bodies, and fragments generated from explosions, collisions, or faulty payload assembly.

Loading next visibility...
Identifier
60448, 2023-091BC
Orbit
SSO
Country
Flag of CISCIS
Related business
Manufacturer
VNIIEM
Mission
Spacecraft
Bus & Motor
RESURS-O, Unknown motor
Mass
Unknown
Launch date (UTC)
2023-06-27 (3 years ago)
Launch vehicle
Unknown
Launch site
Vostochny Cosmodrome (VOSTO)
Object type
Payload
Rocket body
Debris
Shape & HBR
Unknown shape, 0.1 m
Radar Cross Section
Small (<0.1 m²)

Expand to show TLE details & history
Last TLE update: 5 days ago

TLE from 5 days ago
0 METEOR M2-3 DEB
1 60448U 23091BC  26155.11692536  .00000380  00000-0  18070-3 0  9999
2 60448  98.6117 211.2385 0003793 186.4360 173.6771 14.25035599116966
Epoch: 2026-06-04T02:48Z
TLE epoch observation values (Epoch: 2026-06-04T02:48:22.351Z)
Latitude
-0.00005°
Longitude
-83.42042°
Altitude
814.007 km
Speed
7.445 km/s
True Right ascension
14h 04m 57s
True Declination
0° 00' 00"
Sunlit
Object was in full shadow at epoch
Visualization orbit readout
Latitude
Unknown
Longitude
Unknown
Altitude
Unknown
Speed
Unknown
Apparent Right ascension
Unknown
Apparent Declination
Unknown
Sunlit
N/A
Visualization observer readout
Local Sidereal Time
19:16:19
Azimuth
Unknown
Elevation
Unknown
Doppler factor
Unknown
Orbital elements
Apogee altitude
808.245 km
Perigee altitude
802.795 km
Semi-major axis
7,183.657 km
Eccentricity
0.00038
Inclination
98.6117°
RAAN
211.2385°
Arg. of periapsis
186.436°
True anomaly
173.68188°
Mean anomaly
173.6771°
Eccentric anomaly
173.67949°
Mean motion
3.56471 °/min
Orbital period
100.99 mins
BSTAR
0.0001807
Loading maneuver chart data...
Computing Atmospheric mass density...
Loading historical data...
Loading historical data...
Loading historical data...
Loading historical data...
Loading historical data...
Loading historical data...
Loading historical data...

Documentation

Showing up to 5 results
|